﻿測定場所 (Monitoring sites),日付 (Measurement date),時間 (Measurement time),線量率 最大値 (max) μGy/h,線量率 最小値 (min) μGy/h,線量率 平均値 (average) μGy/h,
江戸川 (Edogawa),2016-01-24,23:01～24:00,0.0621,0.0553,0.0583,
江戸川 (Edogawa),2016-01-24,22:01～23:00,0.0614,0.0547,0.0581,
江戸川 (Edogawa),2016-01-24,21:01～22:00,0.0619,0.0535,0.0579,
江戸川 (Edogawa),2016-01-24,20:01～21:00,0.0614,0.0542,0.0578,
江戸川 (Edogawa),2016-01-24,19:01～20:00,0.0606,0.0552,0.0580,
江戸川 (Edogawa),2016-01-24,18:01～19:00,0.0624,0.0552,0.0582,
江戸川 (Edogawa),2016-01-24,17:01～18:00,0.0618,0.0550,0.0584,
江戸川 (Edogawa),2016-01-24,16:01～17:00,0.0613,0.0554,0.0583,
江戸川 (Edogawa),2016-01-24,15:01～16:00,0.0621,0.0554,0.0584,
江戸川 (Edogawa),2016-01-24,14:01～15:00,0.0613,0.0547,0.0584,
江戸川 (Edogawa),2016-01-24,13:01～14:00,0.0619,0.0557,0.0589,
江戸川 (Edogawa),2016-01-24,12:01～13:00,0.0614,0.0550,0.0584,
江戸川 (Edogawa),2016-01-24,11:01～12:00,0.0615,0.0546,0.0583,
江戸川 (Edogawa),2016-01-24,10:01～11:00,0.0621,0.0547,0.0584,
江戸川 (Edogawa),2016-01-24,09:01～10:00,0.0608,0.0539,0.0581,
江戸川 (Edogawa),2016-01-24,08:01～09:00,0.0611,0.0557,0.0583,
江戸川 (Edogawa),2016-01-24,07:01～08:00,0.0605,0.0539,0.0578,
江戸川 (Edogawa),2016-01-24,06:01～07:00,0.0614,0.0553,0.0577,
江戸川 (Edogawa),2016-01-24,05:01～06:00,0.0601,0.0540,0.0576,
江戸川 (Edogawa),2016-01-24,04:01～05:00,0.0608,0.0549,0.0577,
江戸川 (Edogawa),2016-01-24,03:01～04:00,0.0612,0.0543,0.0576,
江戸川 (Edogawa),2016-01-24,02:01～03:00,0.0602,0.0549,0.0574,
江戸川 (Edogawa),2016-01-24,01:01～02:00,0.0604,0.0529,0.0577,
江戸川 (Edogawa),2016-01-24,00:01～01:00,0.0610,0.0543,0.0575,
江戸川 (Edogawa),2016-01-23,23:01～24:00,0.0620,0.0549,0.0579,
江戸川 (Edogawa),2016-01-23,22:01～23:00,0.0619,0.0546,0.0576,
江戸川 (Edogawa),2016-01-23,21:01～22:00,0.0600,0.0538,0.0575,
江戸川 (Edogawa),2016-01-23,20:01～21:00,0.0605,0.0545,0.0576,
江戸川 (Edogawa),2016-01-23,19:01～20:00,0.0622,0.0545,0.0578,
江戸川 (Edogawa),2016-01-23,18:01～19:00,0.0626,0.0554,0.0585,
江戸川 (Edogawa),2016-01-23,17:01～18:00,0.0643,0.0558,0.0598,
江戸川 (Edogawa),2016-01-23,16:01～17:00,0.0625,0.0566,0.0594,
江戸川 (Edogawa),2016-01-23,15:01～16:00,0.0615,0.0547,0.0586,
江戸川 (Edogawa),2016-01-23,14:01～15:00,0.0623,0.0545,0.0581,
江戸川 (Edogawa),2016-01-23,13:01～14:00,0.0614,0.0556,0.0584,
江戸川 (Edogawa),2016-01-23,12:01～13:00,0.0612,0.0557,0.0579,
江戸川 (Edogawa),2016-01-23,11:01～12:00,0.0607,0.0554,0.0579,
江戸川 (Edogawa),2016-01-23,10:01～11:00,0.0603,0.0536,0.0573,
江戸川 (Edogawa),2016-01-23,09:01～10:00,0.0619,0.0554,0.0577,
江戸川 (Edogawa),2016-01-23,08:01～09:00,0.0599,0.0554,0.0576,
江戸川 (Edogawa),2016-01-23,07:01～08:00,0.0615,0.0528,0.0579,
江戸川 (Edogawa),2016-01-23,06:01～07:00,0.0607,0.0550,0.0574,
江戸川 (Edogawa),2016-01-23,05:01～06:00,0.0604,0.0542,0.0574,
江戸川 (Edogawa),2016-01-23,04:01～05:00,0.0601,0.0540,0.0575,
江戸川 (Edogawa),2016-01-23,03:01～04:00,0.0616,0.0545,0.0574,
江戸川 (Edogawa),2016-01-23,02:01～03:00,0.0617,0.0521,0.0572,
江戸川 (Edogawa),2016-01-23,01:01～02:00,0.0599,0.0534,0.0567,
江戸川 (Edogawa),2016-01-23,00:01～01:00,0.0613,0.0544,0.0570,
江戸川 (Edogawa),2016-01-22,23:01～24:00,0.0615,0.0533,0.0570,
江戸川 (Edogawa),2016-01-22,22:01～23:00,0.0611,0.0541,0.0573,
江戸川 (Edogawa),2016-01-22,21:01～22:00,0.0619,0.0538,0.0574,
江戸川 (Edogawa),2016-01-22,20:01～21:00,0.0603,0.0542,0.0574,
江戸川 (Edogawa),2016-01-22,19:01～20:00,0.0604,0.0523,0.0571,
江戸川 (Edogawa),2016-01-22,18:01～19:00,0.0619,0.0541,0.0577,
江戸川 (Edogawa),2016-01-22,17:01～18:00,0.0607,0.0534,0.0573,
江戸川 (Edogawa),2016-01-22,16:01～17:00,0.0613,0.0537,0.0578,
江戸川 (Edogawa),2016-01-22,15:01～16:00,0.0623,0.0550,0.0583,
江戸川 (Edogawa),2016-01-22,14:01～15:00,0.0618,0.0546,0.0580,
江戸川 (Edogawa),2016-01-22,13:01～14:00,0.0619,0.0544,0.0579,
江戸川 (Edogawa),2016-01-22,12:01～13:00,0.0616,0.0548,0.0580,
江戸川 (Edogawa),2016-01-22,11:01～12:00,0.0618,0.0546,0.0582,
江戸川 (Edogawa),2016-01-22,10:01～11:00,0.0621,0.0537,0.0580,
江戸川 (Edogawa),2016-01-22,09:01～10:00,0.0613,0.0537,0.0577,
江戸川 (Edogawa),2016-01-22,08:01～09:00,0.0605,0.0550,0.0574,
江戸川 (Edogawa),2016-01-22,07:01～08:00,0.0613,0.0531,0.0575,
江戸川 (Edogawa),2016-01-22,06:01～07:00,0.0619,0.0535,0.0572,
江戸川 (Edogawa),2016-01-22,05:01～06:00,0.0601,0.0539,0.0575,
江戸川 (Edogawa),2016-01-22,04:01～05:00,0.0603,0.0545,0.0571,
江戸川 (Edogawa),2016-01-22,03:01～04:00,0.0618,0.0548,0.0574,
江戸川 (Edogawa),2016-01-22,02:01～03:00,0.0604,0.0546,0.0570,
江戸川 (Edogawa),2016-01-22,01:01～02:00,0.0600,0.0548,0.0571,
江戸川 (Edogawa),2016-01-22,00:01～01:00,0.0618,0.0546,0.0575,
江戸川 (Edogawa),2016-01-21,23:01～24:00,0.0625,0.0527,0.0573,
江戸川 (Edogawa),2016-01-21,22:01～23:00,0.0604,0.0546,0.0575,
江戸川 (Edogawa),2016-01-21,21:01～22:00,0.0611,0.0528,0.0573,
江戸川 (Edogawa),2016-01-21,20:01～21:00,0.0609,0.0523,0.0570,
江戸川 (Edogawa),2016-01-21,19:01～20:00,0.0601,0.0539,0.0570,
江戸川 (Edogawa),2016-01-21,18:01～19:00,0.0606,0.0530,0.0572,
江戸川 (Edogawa),2016-01-21,17:01～18:00,0.0600,0.0548,0.0572,
江戸川 (Edogawa),2016-01-21,16:01～17:00,0.0613,0.0547,0.0576,
江戸川 (Edogawa),2016-01-21,15:01～16:00,0.0613,0.0528,0.0578,
江戸川 (Edogawa),2016-01-21,14:01～15:00,0.0610,0.0542,0.0576,
江戸川 (Edogawa),2016-01-21,13:01～14:00,0.0614,0.0549,0.0576,
江戸川 (Edogawa),2016-01-21,12:01～13:00,0.0605,0.0548,0.0575,
江戸川 (Edogawa),2016-01-21,11:01～12:00,0.0608,0.0556,0.0578,
江戸川 (Edogawa),2016-01-21,10:01～11:00,0.0603,0.0547,0.0573,
江戸川 (Edogawa),2016-01-21,09:01～10:00,0.0602,0.0532,0.0574,
江戸川 (Edogawa),2016-01-21,08:01～09:00,0.0594,0.0524,0.0567,
江戸川 (Edogawa),2016-01-21,07:01～08:00,0.0603,0.0527,0.0563,
江戸川 (Edogawa),2016-01-21,06:01～07:00,0.0599,0.0520,0.0567,
江戸川 (Edogawa),2016-01-21,05:01～06:00,0.0600,0.0532,0.0563,
江戸川 (Edogawa),2016-01-21,04:01～05:00,0.0610,0.0534,0.0568,
江戸川 (Edogawa),2016-01-21,03:01～04:00,0.0594,0.0538,0.0566,
江戸川 (Edogawa),2016-01-21,02:01～03:00,0.0607,0.0532,0.0566,
江戸川 (Edogawa),2016-01-21,01:01～02:00,0.0587,0.0538,0.0563,
江戸川 (Edogawa),2016-01-21,00:01～01:00,0.0609,0.0523,0.0566,
江戸川 (Edogawa),2016-01-20,23:01～24:00,0.0587,0.0518,0.0561,
江戸川 (Edogawa),2016-01-20,22:01～23:00,0.0606,0.0517,0.0564,
江戸川 (Edogawa),2016-01-20,21:01～22:00,0.0597,0.0534,0.0564,
江戸川 (Edogawa),2016-01-20,20:01～21:00,0.0590,0.0527,0.0562,
江戸川 (Edogawa),2016-01-20,19:01～20:00,0.0598,0.0535,0.0564,
江戸川 (Edogawa),2016-01-20,18:01～19:00,0.0612,0.0528,0.0565,
江戸川 (Edogawa),2016-01-20,17:01～18:00,0.0601,0.0536,0.0564,
江戸川 (Edogawa),2016-01-20,16:01～17:00,0.0602,0.0547,0.0569,
江戸川 (Edogawa),2016-01-20,15:01～16:00,0.0596,0.0544,0.0570,
江戸川 (Edogawa),2016-01-20,14:01～15:00,0.0607,0.0533,0.0571,
江戸川 (Edogawa),2016-01-20,13:01～14:00,0.0613,0.0550,0.0580,
江戸川 (Edogawa),2016-01-20,12:01～13:00,0.0618,0.0558,0.0587,
江戸川 (Edogawa),2016-01-20,11:01～12:00,0.0630,0.0557,0.0584,
江戸川 (Edogawa),2016-01-20,10:01～11:00,0.0629,0.0551,0.0584,
江戸川 (Edogawa),2016-01-20,09:01～10:00,0.0606,0.0549,0.0579,
江戸川 (Edogawa),2016-01-20,08:01～09:00,0.0608,0.0531,0.0573,
江戸川 (Edogawa),2016-01-20,07:01～08:00,0.0602,0.0532,0.0570,
江戸川 (Edogawa),2016-01-20,06:01～07:00,0.0605,0.0523,0.0572,
江戸川 (Edogawa),2016-01-20,05:01～06:00,0.0616,0.0533,0.0569,
江戸川 (Edogawa),2016-01-20,04:01～05:00,0.0598,0.0534,0.0568,
江戸川 (Edogawa),2016-01-20,03:01～04:00,0.0606,0.0520,0.0567,
江戸川 (Edogawa),2016-01-20,02:01～03:00,0.0600,0.0532,0.0569,
江戸川 (Edogawa),2016-01-20,01:01～02:00,0.0608,0.0540,0.0569,
江戸川 (Edogawa),2016-01-20,00:01～01:00,0.0598,0.0535,0.0569,
江戸川 (Edogawa),2016-01-19,23:01～24:00,0.0604,0.0531,0.0569,
江戸川 (Edogawa),2016-01-19,22:01～23:00,0.0600,0.0530,0.0569,
江戸川 (Edogawa),2016-01-19,21:01～22:00,0.0624,0.0533,0.0568,
江戸川 (Edogawa),2016-01-19,20:01～21:00,0.0600,0.0543,0.0572,
江戸川 (Edogawa),2016-01-19,19:01～20:00,0.0607,0.0532,0.0570,
江戸川 (Edogawa),2016-01-19,18:01～19:00,0.0611,0.0537,0.0571,
江戸川 (Edogawa),2016-01-19,17:01～18:00,0.0604,0.0534,0.0569,
江戸川 (Edogawa),2016-01-19,16:01～17:00,0.0605,0.0525,0.0571,
江戸川 (Edogawa),2016-01-19,15:01～16:00,0.0602,0.0544,0.0575,
江戸川 (Edogawa),2016-01-19,14:01～15:00,0.0628,0.0539,0.0578,
江戸川 (Edogawa),2016-01-19,13:01～14:00,0.0633,0.0531,0.0578,
江戸川 (Edogawa),2016-01-19,12:01～13:00,0.0612,0.0545,0.0576,
江戸川 (Edogawa),2016-01-19,11:01～12:00,0.0612,0.0540,0.0577,
江戸川 (Edogawa),2016-01-19,10:01～11:00,0.0606,0.0541,0.0573,
江戸川 (Edogawa),2016-01-19,09:01～10:00,0.0601,0.0537,0.0568,
江戸川 (Edogawa),2016-01-19,08:01～09:00,0.0598,0.0537,0.0565,
江戸川 (Edogawa),2016-01-19,07:01～08:00,0.0591,0.0534,0.0564,
江戸川 (Edogawa),2016-01-19,06:01～07:00,0.0605,0.0530,0.0566,
江戸川 (Edogawa),2016-01-19,05:01～06:00,0.0596,0.0537,0.0573,
江戸川 (Edogawa),2016-01-19,04:01～05:00,0.0610,0.0548,0.0578,
江戸川 (Edogawa),2016-01-19,03:01～04:00,0.0611,0.0542,0.0572,
江戸川 (Edogawa),2016-01-19,02:01～03:00,0.0605,0.0526,0.0569,
江戸川 (Edogawa),2016-01-19,01:01～02:00,0.0595,0.0518,0.0564,
江戸川 (Edogawa),2016-01-19,00:01～01:00,0.0605,0.0539,0.0571,
江戸川 (Edogawa),2016-01-18,23:01～24:00,0.0604,0.0541,0.0570,
江戸川 (Edogawa),2016-01-18,22:01～23:00,0.0609,0.0539,0.0569,
江戸川 (Edogawa),2016-01-18,21:01～22:00,0.0596,0.0522,0.0565,
江戸川 (Edogawa),2016-01-18,20:01～21:00,0.0592,0.0527,0.0564,
江戸川 (Edogawa),2016-01-18,19:01～20:00,0.0602,0.0522,0.0567,
江戸川 (Edogawa),2016-01-18,18:01～19:00,0.0601,0.0520,0.0566,
江戸川 (Edogawa),2016-01-18,17:01～18:00,0.0596,0.0532,0.0568,
江戸川 (Edogawa),2016-01-18,16:01～17:00,0.0601,0.0521,0.0567,
江戸川 (Edogawa),2016-01-18,15:01～16:00,0.0613,0.0544,0.0577,
江戸川 (Edogawa),2016-01-18,14:01～15:00,0.0665,0.0566,0.0613,
江戸川 (Edogawa),2016-01-18,13:01～14:00,0.0697,0.0628,0.0662,
江戸川 (Edogawa),2016-01-18,12:01～13:00,0.0752,0.0649,0.0688,
江戸川 (Edogawa),2016-01-18,11:01～12:00,0.0792,0.0674,0.0722,
江戸川 (Edogawa),2016-01-18,10:01～11:00,0.0742,0.0659,0.0698,
江戸川 (Edogawa),2016-01-18,09:01～10:00,0.0717,0.0638,0.0679,
江戸川 (Edogawa),2016-01-18,08:01～09:00,0.0738,0.0634,0.0683,
江戸川 (Edogawa),2016-01-18,07:01～08:00,0.0704,0.0630,0.0672,
江戸川 (Edogawa),2016-01-18,06:01～07:00,0.0744,0.0637,0.0686,
江戸川 (Edogawa),2016-01-18,05:01～06:00,0.0813,0.0703,0.0739,
江戸川 (Edogawa),2016-01-18,04:01～05:00,0.0865,0.0725,0.0790,
江戸川 (Edogawa),2016-01-18,03:01～04:00,0.0909,0.0791,0.0854,
江戸川 (Edogawa),2016-01-18,02:01～03:00,0.0931,0.0789,0.0869,
江戸川 (Edogawa),2016-01-18,01:01～02:00,0.0933,0.0800,0.0853,
江戸川 (Edogawa),2016-01-18,00:01～01:00,0.0867,0.0697,0.0786,
